Location: Cardiff
(53.7833°N, 113.6000°W)
Time: 15:46:05
(UTC+00:00)

RS-15 - Pass Details

Date: 12 December 2023
Orbit: 1893 x 2151 km, 64.8° (Epoch: 20 February)

Event Time Altitude Azimuth Distance (km) Brightness Sun altitude
Enters shadow 08:57:37 - 302° (WNW) 5,583 10.4 -54.9°
Exits shadow 09:18:33 33° 93° (E) 2,932 9.0 -52.9°
Drops below altitude 10° 09:23:48 10° 106° (ESE) 4,323 10.0 -52.3°
Sets 09:27:07 0° 110° (ESE) 5,300 10.5 -52.0°
